TimeCET,TemperatureF,Dew PointF,Humidity,Sea Level PressureIn,VisibilityMPH,Wind Direction,Wind SpeedMPH,Gust SpeedMPH,PrecipitationIn,Events,Conditions,WindDirDegrees,DateUTC
12:00 AM,46.4,42.8,87,30.24,6.2,WSW,11.5,-,N/A,,Mostly Cloudy,250,2012-11-07 23:00:00
1:00 AM,46.4,42.8,87,30.21,6.2,WSW,11.5,-,N/A,,Mostly Cloudy,250,2012-11-08 00:00:00
2:25 AM,46.4,42.8,87,30.21,6.2,WSW,8.1,-,N/A,,Mostly Cloudy,240,2012-11-08 01:25:00
3:00 AM,46.4,42.8,87,30.21,6.2,WSW,5.8,-,N/A,,Overcast,250,2012-11-08 02:00:00
4:00 AM,46.4,42.8,87,30.21,6.2,SW,5.8,-,N/A,,Overcast,230,2012-11-08 03:00:00
5:00 AM,44.6,42.8,93,30.21,6.2,SW,4.6,-,N/A,,Overcast,220,2012-11-08 04:00:00
6:00 AM,44.6,42.8,93,30.18,6.2,SW,5.8,-,N/A,,Mostly Cloudy,220,2012-11-08 05:00:00
7:00 AM,44.6,42.8,93,30.15,6.2,SW,3.5,-,N/A,,Mostly Cloudy,220,2012-11-08 06:00:00
8:00 AM,42.8,41.0,93,30.15,6.2,South,3.5,-,N/A,,Mostly Cloudy,170,2012-11-08 07:00:00
9:00 AM,46.4,41.0,81,30.15,6.2,Calm,Calm,-,N/A,,Mostly Cloudy,0,2012-11-08 08:00:00
10:00 AM,48.2,41.0,76,30.15,6.2,WSW,4.6,-,N/A,,Mostly Cloudy,240,2012-11-08 09:00:00
11:00 AM,48.2,41.0,76,30.15,6.2,SW,3.5,-,N/A,,Mostly Cloudy,230,2012-11-08 10:00:00
12:00 PM,50.0,42.8,76,30.12,6.2,WSW,5.8,-,N/A,,Mostly Cloudy,240,2012-11-08 11:00:00
1:00 PM,51.8,42.8,71,30.09,6.2,West,6.9,-,N/A,,Mostly Cloudy,270,2012-11-08 12:00:00
2:00 PM,50.0,42.8,76,30.09,6.2,West,8.1,-,N/A,,Mostly Cloudy,270,2012-11-08 13:00:00
3:00 PM,50.0,44.6,82,30.06,6.2,West,6.9,-,N/A,,Mostly Cloudy,260,2012-11-08 14:00:00
4:00 PM,46.4,42.8,87,30.06,6.2,WNW,3.5,-,N/A,,Mostly Cloudy,290,2012-11-08 15:00:00
5:00 PM,44.6,42.8,93,30.04,6.2,WSW,4.6,-,N/A,,Mostly Cloudy,250,2012-11-08 16:00:00
6:00 PM,44.6,41.0,87,30.04,6.2,West,5.8,-,N/A,,Mostly Cloudy,280,2012-11-08 17:00:00
7:00 PM,44.6,41.0,87,30.04,6.2,WSW,5.8,-,N/A,,Mostly Cloudy,240,2012-11-08 18:00:00
8:00 PM,44.6,41.0,87,30.04,6.2,WSW,6.9,-,N/A,,Mostly Cloudy,240,2012-11-08 19:00:00
9:00 PM,46.4,42.8,87,30.04,6.2,WSW,8.1,-,N/A,,Mostly Cloudy,250,2012-11-08 20:00:00
10:00 PM,44.6,41.0,87,30.04,6.2,SW,4.6,-,N/A,,Overcast,230,2012-11-08 21:00:00
11:00 PM,44.6,42.8,93,30.04,6.2,WSW,5.8,-,N/A,,Overcast,250,2012-11-08 22:00:00